Terug naar catalogus

STARLINK-33629

ActiefCommunicatieVLEO
NORAD 63388·PAYLOAD·🇺🇸 United States

Gelanceerd Mar 26, 2025 vanaf Vandenberg Space Force Base

Loading…

Volgende Passages (komende 24 uur)

TLE

VersSource: CelesTrak SupGP

Epoch: Sep 14, 2026, 21:08 UTC

1 63388C 25063AB  26257.88104167  .00050077  00000+0  14797-2 0  2576
2 63388  53.1573 247.9723 0001302  92.6055 352.6828 15.34362469    19

Volg STARLINK-33629 in realtime met AllMySat

Download on the App Store